Terug naar catalogus

CZ-6A DEB

ActiefPO
NORAD 60699·DEBRIS·🇨🇳 China

Gelanceerd Aug 6, 2024 vanaf Taiyuan Satellite Launch Center

Loading…

Volgende Passages (komende 24 uur)

TLE

VersSource: Space-Track

Epoch: Sep 14, 2026, 08:58 UTC

1 60699U 24140DC  26257.37405655  .00000628  00000-0  29330-3 0  9994
2 60699  88.6996 238.0580 0064421 239.4395 120.0428 14.18050860108050

Volg CZ-6A DEB in realtime met AllMySat

Download on the App Store